| time (UTC) | temp C | wind direction | speed KPH | gust KPH | rain 1hr cm | rain 24hr cm | rain mn cm | humidity % | barometer mb |
| 20260507015613 | 11 | 48 | 0.0 | 0.0 | 0.00 | 0.56 | 0.56 | 98 | 1015.2 |
| 20260507015110 | 11 | 48 | 0.0 | 0.0 | 0.00 | 0.56 | 0.56 | 98 | 1015.1 |
| 20260507014607 | 11 | 48 | 0.0 | 0.0 | 0.00 | 0.56 | 0.56 | 98 | 1015.2 |
| 20260507014102 | 11 | 48 | 0.0 | 0.0 | 0.00 | 0.56 | 0.56 | 98 | 1015.2 |
| 20260507013559 | 11 | 48 | 0.0 | 0.0 | 0.00 | 0.56 | 0.56 | 97 | 1015.1 |
| 20260507013057 | 11 | 48 | 0.0 | 0.0 | 0.00 | 0.56 | 0.56 | 97 | 1015.4 |
| 20260507012554 | 11 | 48 | 0.0 | 0.0 | 0.00 | 0.56 | 0.56 | 97 | 1015.6 |
| 20260507012049 | 11 | 48 | 0.0 | 0.0 | 0.00 | 0.56 | 0.56 | 97 | 1015.3 |
| 20260507011548 | 12 | 48 | 0.0 | 0.0 | 0.00 | 0.56 | 0.56 | 97 | 1015.4 |
| 20260507011044 | 12 | 48 | 0.0 | 0.0 | 0.00 | 0.56 | 0.56 | 97 | 1015.4 |
| 20260507010538 | 12 | 48 | 0.0 | 0.0 | 0.00 | 0.56 | 0.56 | 97 | 1015.4 |
| 20260507010034 | 12 | 48 | 0.0 | 0.0 | 0.00 | 0.56 | 0.56 | 97 | 1015.7 |
| 20260507005533 | 12 | 48 | 0.0 | 0.0 | 0.00 | 0.56 | 0.56 | 97 | 1015.4 |
| 20260507005028 | 12 | 48 | 0.0 | 0.0 | 0.00 | 0.56 | 0.56 | 96 | 1015.6 |
| 20260507004526 | 12 | 48 | 0.0 | 0.0 | 0.00 | 0.56 | 0.56 | 96 | 1015.6 |
| 20260507004023 | 12 | 48 | 0.0 | 0.0 | 0.00 | 0.56 | 0.56 | 96 | 1015.6 |
| 20260507003518 | 12 | 48 | 0.0 | 0.0 | 0.00 | 0.56 | 0.56 | 96 | 1015.8 |
| 20260507003014 | 12 | 48 | 0.0 | 0.0 | 0.00 | 0.56 | 0.56 | 96 | 1015.8 |
| 20260507002510 | 12 | 48 | 0.0 | 0.0 | 0.00 | 0.56 | 0.56 | 96 | 1015.7 |
| 20260507002007 | 12 | 48 | 0.0 | 0.0 | 0.00 | 0.56 | 0.56 | 96 | 1015.6 |
| 20260507001503 | 12 | 48 | 0.0 | 0.0 | 0.00 | 0.56 | 0.56 | 96 | 1015.8 |
| 20260507001001 | 12 | 47 | 0.0 | 0.0 | 0.00 | 0.56 | 0.56 | 96 | 1015.2 |
| 20260507000456 | 12 | 47 | 0.0 | 0.0 | 0.00 | 0.56 | 0.56 | 95 | 1015.2 |
| 20260506235952 | 12 | 47 | 0.0 | 0.0 | 0.00 | 0.56 | 0.56 | 95 | 1015.0 |
| 20260506235450 | 12 | 47 | 0.0 | 0.0 | 0.00 | 0.56 | 0.56 | 96 | 1014.9 |
| 20260506234945 | 12 | 46 | 0.0 | 0.0 | 0.00 | 0.56 | 0.56 | 96 | 1014.8 |
| 20260506234443 | 12 | 53 | 1.6 | 1.6 | 0.00 | 0.56 | 0.56 | 96 | 1014.4 |
| 20260506233940 | 12 | 55 | 0.0 | 0.0 | 0.00 | 0.56 | 0.56 | 96 | 1014.0 |
| 20260506233437 | 12 | 55 | 0.0 | 0.0 | 0.00 | 0.56 | 0.56 | 96 | 1014.2 |
| 20260506232933 | 12 | 55 | 0.0 | 0.0 | 0.00 | 0.56 | 0.56 | 96 | 1013.8 |
| 20260506232430 | 12 | 55 | 0.0 | 0.0 | 0.00 | 0.56 | 0.56 | 96 | 1014.1 |
| 20260506231925 | 12 | 55 | 0.0 | 0.0 | 0.00 | 0.56 | 0.56 | 96 | 1014.1 |
| 20260506231423 | 12 | 55 | 0.0 | 0.0 | 0.00 | 0.56 | 0.56 | 96 | 1013.8 |
| 20260506230920 | 12 | 55 | 0.0 | 0.0 | 0.00 | 0.56 | 0.56 | 96 | 1013.6 |
| 20260506230417 | 12 | 55 | 0.0 | 0.0 | 0.00 | 0.56 | 0.56 | 96 | 1013.3 |
| 20260506225913 | 12 | 55 | 0.0 | 0.0 | 0.00 | 0.56 | 0.56 | 95 | 1013.3 |
| 20260506225411 | 12 | 55 | 0.0 | 0.0 | 0.00 | 0.56 | 0.56 | 95 | 1013.2 |
| 20260506224908 | 12 | 56 | 0.0 | 0.0 | 0.00 | 0.56 | 0.56 | 95 | 1013.2 |
| 20260506224405 | 12 | 54 | 0.0 | 0.0 | 0.00 | 0.56 | 0.56 | 95 | 1013.6 |
| 20260506223901 | 12 | 50 | 0.0 | 0.0 | 0.00 | 0.56 | 0.56 | 96 | 1013.8 |
| 20260506223356 | 12 | 45 | 0.0 | 0.0 | 0.00 | 0.56 | 0.56 | 96 | 1013.7 |
| 20260506222854 | 12 | 43 | 0.0 | 0.0 | 0.00 | 0.56 | 0.56 | 95 | 1013.9 |
| 20260506222349 | 12 | 47 | 0.0 | 0.0 | 0.00 | 0.56 | 0.56 | 95 | 1013.8 |
| 20260506221847 | 12 | 47 | 0.0 | 0.0 | 0.13 | 0.56 | 0.56 | 95 | 1014.4 |
| 20260506221344 | 12 | 46 | 0.0 | 0.0 | 0.30 | 0.56 | 0.56 | 95 | 1015.0 |
| 20260506220842 | 12 | 46 | 0.0 | 0.0 | 0.18 | 0.53 | 0.53 | 94 | 1014.9 |
| 20260506220337 | 12 | 45 | 0.0 | 0.0 | 0.18 | 0.53 | 0.53 | 94 | 1015.0 |
| 20260506215834 | 12 | 49 | 0.0 | 0.0 | 0.00 | 0.51 | 0.51 | 94 | 1014.8 |
| 20260506215330 | 12 | 40 | 0.0 | 0.0 | 0.00 | 0.51 | 0.51 | 94 | 1014.8 |
| 20260506214826 | 12 | 40 | 0.0 | 0.0 | 0.00 | 0.51 | 0.51 | 94 | 1014.8 |
| 20260506214323 | 12 | 40 | 0.0 | 0.0 | 0.00 | 0.51 | 0.51 | 93 | 1014.8 |
| 20260506213821 | 12 | 40 | 0.0 | 0.0 | 0.00 | 0.51 | 0.51 | 93 | 1014.7 |
| 20260506213318 | 12 | 40 | 0.0 | 0.0 | 0.00 | 0.51 | 0.51 | 93 | 1014.7 |
| 20260506212816 | 12 | 40 | 0.0 | 0.0 | 0.00 | 0.51 | 0.51 | 93 | 1014.6 |
| 20260506212311 | 12 | 38 | 0.0 | 0.0 | 0.00 | 0.51 | 0.51 | 93 | 1014.7 |
| 20260506211806 | 13 | 47 | 0.0 | 0.0 | 0.00 | 0.51 | 0.51 | 94 | 1014.5 |
| 20260506211303 | 12 | 46 | 0.0 | 0.0 | 0.00 | 0.51 | 0.51 | 94 | 1014.6 |
| 20260506210801 | 12 | 47 | 0.0 | 0.0 | 0.13 | 0.51 | 0.51 | 94 | 1014.7 |
| 20260506210257 | 12 | 47 | 0.0 | 0.0 | 0.13 | 0.51 | 0.51 | 94 | 1014.5 |
| 20260506205754 | 12 | 47 | 0.0 | 0.0 | 0.18 | 0.48 | 0.48 | 94 | 1014.6 |
| 20260506205250 | 12 | 47 | 0.0 | 0.0 | 0.18 | 0.48 | 0.48 | 94 | 1014.8 |
| 20260506204746 | 12 | 47 | 0.0 | 0.0 | 0.13 | 0.46 | 0.46 | 93 | 1014.5 |
| 20260506204244 | 12 | 47 | 0.0 | 0.0 | 0.13 | 0.46 | 0.46 | 92 | 1014.9 |
| 20260506203742 | 12 | 47 | 0.0 | 0.0 | 0.00 | 0.43 | 0.43 | 91 | 1015.0 |
| 20260506203239 | 12 | 47 | 0.0 | 0.0 | 0.18 | 0.43 | 0.43 | 91 | 1015.0 |
| 20260506202736 | 12 | 47 | 0.0 | 0.0 | 0.18 | 0.43 | 0.43 | 91 | 1014.8 |
| 20260506202232 | 12 | 46 | 0.0 | 0.0 | 0.00 | 0.41 | 0.41 | 91 | 1015.0 |
| 20260506201729 | 12 | 46 | 0.0 | 0.0 | 0.00 | 0.41 | 0.41 | 91 | 1015.1 |
| 20260506201226 | 13 | 46 | 0.0 | 0.0 | 0.00 | 0.41 | 0.41 | 92 | 1014.9 |
| 20260506200723 | 13 | 46 | 0.0 | 0.0 | 0.13 | 0.41 | 0.41 | 91 | 1014.7 |
| 20260506200220 | 13 | 46 | 0.0 | 0.0 | 0.13 | 0.41 | 0.41 | 91 | 1014.5 |
| 20260506195716 | 13 | 45 | 0.0 | 0.0 | 0.00 | 0.38 | 0.38 | 90 | 1014.8 |
| 20260506195213 | 13 | 44 | 0.0 | 0.0 | 0.18 | 0.38 | 0.38 | 90 | 1015.3 |
| 20260506194710 | 13 | 44 | 0.0 | 0.0 | 0.18 | 0.38 | 0.38 | 89 | 1015.4 |
| 20260506194206 | 13 | 44 | 0.0 | 0.0 | 0.00 | 0.36 | 0.36 | 87 | 1015.5 |
| 20260506193704 | 13 | 43 | 0.0 | 0.0 | 0.13 | 0.36 | 0.36 | 85 | 1015.8 |
| 20260506193201 | 13 | 56 | 0.0 | 0.0 | 0.13 | 0.36 | 0.36 | 83 | 1016.0 |
| 20260506192658 | 13 | 63 | 0.0 | 0.0 | 0.00 | 0.33 | 0.33 | 82 | 1015.4 |
| 20260506192154 | 13 | 52 | 0.0 | 0.0 | 0.00 | 0.33 | 0.33 | 80 | 1015.4 |
| 20260506191651 | 13 | 60 | 0.0 | 0.0 | 0.00 | 0.33 | 0.33 | 80 | 1015.5 |
| 20260506191147 | 13 | 70 | 0.0 | 1.6 | 0.00 | 0.33 | 0.33 | 80 | 1014.9 |
| 20260506190645 | 13 | 61 | 0.0 | 0.0 | 0.00 | 0.33 | 0.33 | 80 | 1014.7 |
| 20260506190141 | 13 | 54 | 0.0 | 0.0 | 0.00 | 0.33 | 0.33 | 80 | 1015.3 |
| 20260506185638 | 13 | 43 | 0.0 | 0.0 | 0.00 | 0.33 | 0.33 | 78 | 1015.6 |
| 20260506185134 | 13 | 42 | 0.0 | 0.0 | 0.00 | 0.33 | 0.33 | 78 | 1014.9 |
| 20260506184632 | 13 | 57 | 0.0 | 0.0 | 0.00 | 0.33 | 0.33 | 78 | 1014.4 |
| 20260506184129 | 13 | 43 | 1.6 | 1.6 | 0.00 | 0.33 | 0.33 | 78 | 1014.5 |
| 20260506183626 | 13 | 53 | 0.0 | 0.0 | 0.00 | 0.33 | 0.33 | 78 | 1014.6 |
| 20260506183121 | 13 | 68 | 1.6 | 1.6 | 0.00 | 0.33 | 0.33 | 79 | 1015.1 |
| 20260506182619 | 13 | 46 | 0.0 | 0.0 | 0.00 | 0.33 | 0.33 | 81 | 1015.3 |
| 20260506182116 | 13 | 44 | 1.6 | 1.6 | 0.00 | 0.33 | 0.33 | 79 | 1015.2 |
| 20260506181614 | 13 | 40 | 0.0 | 0.0 | 0.00 | 0.33 | 0.33 | 79 | 1015.1 |
| 20260506181111 | 13 | 20 | 1.6 | 3.2 | 0.00 | 0.33 | 0.33 | 81 | 1015.1 |
| 20260506180608 | 13 | 31 | 3.2 | 3.2 | 0.00 | 0.33 | 0.33 | 79 | 1015.1 |
| 20260506180104 | 13 | 124 | 3.2 | 3.2 | 0.00 | 0.33 | 0.33 | 79 | 1015.0 |
| 20260506175600 | 13 | 43 | 0.0 | 1.6 | 0.00 | 0.33 | 0.33 | 78 | 1014.5 |
| 20260506175056 | 13 | 35 | 1.6 | 3.2 | 0.00 | 0.33 | 0.33 | 79 | 1014.6 |
| 20260506174556 | 13 | 68 | 0.0 | 1.6 | 0.00 | 0.33 | 0.33 | 79 | 1014.6 |
| 20260506174051 | 13 | 78 | 1.6 | 1.6 | 0.00 | 0.33 | 0.33 | 79 | 1015.0 |
| 20260506173549 | 13 | 52 | 0.0 | 1.6 | 0.00 | 0.33 | 0.33 | 77 | 1015.3 |
| 20260506173046 | 14 | 69 | 1.6 | 1.6 | 0.00 | 0.33 | 0.33 | 75 | 1015.4 |
| 20260506172543 | 14 | 64 | 0.0 | 0.0 | 0.00 | 0.33 | 0.33 | 77 | 1015.1 |
| 20260506172039 | 14 | 49 | 0.0 | 0.0 | 0.00 | 0.33 | 0.33 | 77 | 1015.0 |
| 20260506171537 | 13 | 39 | 1.6 | 1.6 | 0.00 | 0.33 | 0.33 | 79 | 1014.8 |
| 20260506171034 | 13 | 41 | 1.6 | 1.6 | 0.00 | 0.33 | 0.33 | 81 | 1015.1 |
| 20260506170532 | 13 | 40 | 0.0 | 1.6 | 0.00 | 0.33 | 0.33 | 80 | 1015.1 |
| 20260506170029 | 13 | 51 | 0.0 | 0.0 | 0.00 | 0.33 | 0.33 | 80 | 1014.9 |
| 20260506165528 | 13 | 57 | 0.0 | 0.0 | 0.00 | 0.33 | 0.33 | 80 | 1014.9 |
| 20260506165023 | 13 | 37 | 1.6 | 3.2 | 0.00 | 0.33 | 0.33 | 78 | 1015.0 |
| 20260506164520 | 13 | 41 | 1.6 | 1.6 | 0.00 | 0.33 | 0.33 | 78 | 1015.0 |
| 20260506164018 | 13 | 33 | 1.6 | 1.6 | 0.00 | 0.33 | 0.33 | 77 | 1015.0 |
| 20260506163514 | 13 | 40 | 1.6 | 1.6 | 0.00 | 0.33 | 0.33 | 77 | 1014.6 |
| 20260506163010 | 13 | 73 | 1.6 | 3.2 | 0.00 | 0.33 | 0.33 | 77 | 1014.5 |
| 20260506162506 | 13 | 47 | 1.6 | 3.2 | 0.00 | 0.33 | 0.33 | 78 | 1014.6 |
| 20260506162003 | 13 | 39 | 3.2 | 3.2 | 0.00 | 0.33 | 0.33 | 77 | 1014.5 |
| 20260506161501 | 13 | 55 | 1.6 | 1.6 | 0.00 | 0.33 | 0.33 | 77 | 1014.3 |
| 20260506160958 | 13 | 17 | 1.6 | 1.6 | 0.00 | 0.33 | 0.33 | 78 | 1014.5 |
| 20260506160455 | 13 | 56 | 0.0 | 0.0 | 0.00 | 0.33 | 0.33 | 78 | 1014.7 |
| 20260506155952 | 13 | 46 | 0.0 | 1.6 | 0.00 | 0.33 | 0.33 | 79 | 1014.8 |
| 20260506155450 | 12 | 62 | 0.0 | 1.6 | 0.00 | 0.33 | 0.33 | 81 | 1014.9 |
| 20260506153616 | 12 | 53 | 0.0 | 0.0 | 0.00 | 0.33 | 0.33 | 81 | 1015.1 |
| 20260506153114 | 12 | 56 | 0.0 | 0.0 | 0.00 | 0.33 | 0.33 | 81 | 1015.2 |
| 20260506152611 | 12 | 42 | 0.0 | 0.0 | 0.00 | 0.33 | 0.33 | 82 | 1015.6 |
| 20260506152109 | 12 | 47 | 0.0 | 0.0 | 0.00 | 0.33 | 0.33 | 81 | 1015.3 |
| 20260506151607 | 12 | 52 | 0.0 | 0.0 | 0.00 | 0.33 | 0.33 | 82 | 1015.0 |
| 20260506151103 | 12 | 55 | 0.0 | 0.0 | 0.00 | 0.33 | 0.33 | 82 | 1014.7 |
| 20260506150600 | 12 | 54 | 0.0 | 0.0 | 0.00 | 0.33 | 0.33 | 81 | 1014.7 |
| 20260506150057 | 11 | 54 | 0.0 | 0.0 | 0.00 | 0.33 | 0.33 | 83 | 1014.8 |
| 20260506145554 | 11 | 37 | 1.6 | 1.6 | 0.00 | 0.33 | 0.33 | 82 | 1014.8 |
| 20260506145051 | 11 | 58 | 1.6 | 1.6 | 0.00 | 0.33 | 0.33 | 83 | 1014.7 |
| 20260506144548 | 11 | 41 | 0.0 | 0.0 | 0.00 | 0.33 | 0.33 | 85 | 1014.7 |
| 20260506144045 | 10 | 36 | 3.2 | 3.2 | 0.00 | 0.33 | 0.33 | 85 | 1014.4 |
| 20260506143543 | 10 | 40 | 1.6 | 3.2 | 0.00 | 0.33 | 0.33 | 84 | 1014.4 |
| 20260506143041 | 10 | 37 | 1.6 | 3.2 | 0.00 | 0.33 | 0.33 | 86 | 1014.2 |
| 20260506142538 | 10 | 60 | 0.0 | 0.0 | 0.00 | 0.33 | 0.33 | 86 | 1014.6 |
| 20260506142037 | 10 | 55 | 0.0 | 0.0 | 0.00 | 0.33 | 0.33 | 86 | 1014.4 |
| 20260506141534 | 10 | 54 | 0.0 | 0.0 | 0.00 | 0.33 | 0.33 | 87 | 1014.2 |
| 20260506141032 | 10 | 53 | 0.0 | 0.0 | 0.00 | 0.33 | 0.33 | 87 | 1014.2 |
| 20260506140529 | 10 | 53 | 0.0 | 0.0 | 0.00 | 0.33 | 0.33 | 87 | 1013.8 |
| 20260506140026 | 10 | 56 | 0.0 | 1.6 | 0.00 | 0.33 | 0.33 | 88 | 1013.8 |
| 20260506135523 | 10 | 71 | 3.2 | 4.8 | 0.00 | 0.33 | 0.33 | 89 | 1013.9 |
| 20260506135019 | 10 | 59 | 0.0 | 0.0 | 0.00 | 0.33 | 0.33 | 89 | 1013.7 |
| 20260506134515 | 10 | 52 | 0.0 | 0.0 | 0.00 | 0.33 | 0.33 | 89 | 1013.7 |
| 20260506134012 | 10 | 68 | 1.6 | 1.6 | 0.00 | 0.33 | 0.33 | 89 | 1013.5 |
| 20260506133509 | 9 | 55 | 0.0 | 0.0 | 0.00 | 0.33 | 0.33 | 90 | 1013.5 |
| 20260506133006 | 9 | 45 | 0.0 | 1.6 | 0.00 | 0.33 | 0.33 | 90 | 1013.5 |
| 20260506132503 | 9 | 42 | 1.6 | 1.6 | 0.00 | 0.33 | 0.33 | 91 | 1013.2 |
| 20260506132000 | 9 | 45 | 0.0 | 0.0 | 0.00 | 0.33 | 0.33 | 91 | 1013.2 |
| 20260506131457 | 9 | 51 | 1.6 | 3.2 | 0.00 | 0.33 | 0.33 | 91 | 1013.0 |
| 20260506130954 | 9 | 351 | 1.6 | 1.6 | 0.00 | 0.33 | 0.33 | 92 | 1013.3 |
| 20260506130450 | 9 | 67 | 1.6 | 1.6 | 0.00 | 0.33 | 0.33 | 92 | 1013.4 |
| 20260506125948 | 8 | 46 | 0.0 | 1.6 | 0.00 | 0.33 | 0.33 | 92 | 1013.4 |
| 20260506125446 | 8 | 42 | 1.6 | 1.6 | 0.00 | 0.33 | 0.33 | 92 | 1013.0 |
| 20260506124944 | 8 | 65 | 1.6 | 1.6 | 0.00 | 0.33 | 0.33 | 94 | 1013.2 |
| 20260506124441 | 8 | 66 | 0.0 | 1.6 | 0.00 | 0.33 | 0.33 | 95 | 1012.6 |
| 20260506123939 | 8 | 77 | 1.6 | 1.6 | 0.00 | 0.33 | 0.33 | 96 | 1012.7 |
| 20260506123437 | 8 | 44 | 1.6 | 1.6 | 0.00 | 0.33 | 0.33 | 96 | 1012.7 |
| 20260506122934 | 8 | 56 | 1.6 | 1.6 | 0.00 | 0.33 | 0.33 | 96 | 1012.2 |
| 20260506122431 | 8 | 56 | 0.0 | 0.0 | 0.00 | 0.33 | 0.33 | 97 | 1012.3 |
| 20260506121929 | 8 | 57 | 0.0 | 0.0 | 0.00 | 0.33 | 0.33 | 97 | 1011.9 |
| 20260506121426 | 9 | 42 | 0.0 | 1.6 | 0.00 | 0.33 | 0.33 | 97 | 1012.0 |
| 20260506120923 | 9 | 82 | 0.0 | 0.0 | 0.00 | 0.33 | 0.33 | 97 | 1012.1 |
| 20260506120420 | 9 | 55 | 0.0 | 0.0 | 0.00 | 0.33 | 0.33 | 97 | 1012.1 |
| 20260506115917 | 9 | 50 | 0.0 | 0.0 | 0.00 | 0.33 | 0.33 | 97 | 1011.9 |
| 20260506115415 | 9 | 40 | 1.6 | 1.6 | 0.00 | 0.33 | 0.33 | 97 | 1011.9 |
| 20260506114914 | 9 | 41 | 1.6 | 1.6 | 0.00 | 0.33 | 0.33 | 97 | 1012.1 |
| 20260506114411 | 9 | 53 | 0.0 | 0.0 | 0.00 | 0.33 | 0.33 | 97 | 1011.8 |
| 20260506113910 | 9 | 45 | 0.0 | 0.0 | 0.00 | 0.33 | 0.33 | 97 | 1012.0 |
| 20260506113407 | 9 | 62 | 3.2 | 3.2 | 0.00 | 0.33 | 0.33 | 97 | 1011.7 |
| 20260506112903 | 10 | 51 | 0.0 | 0.0 | 0.00 | 0.33 | 0.33 | 97 | 1012.1 |
| 20260506112401 | 10 | 56 | 0.0 | 0.0 | 0.00 | 0.33 | 0.33 | 98 | 1011.9 |
| 20260506111858 | 10 | 44 | 0.0 | 0.0 | 0.00 | 0.33 | 0.33 | 98 | 1011.9 |
| 20260506111356 | 9 | 56 | 0.0 | 0.0 | 0.00 | 0.33 | 0.33 | 98 | 1011.7 |
| 20260506110853 | 10 | 59 | 0.0 | 0.0 | 0.00 | 0.33 | 0.33 | 98 | 1011.9 |
| 20260506110350 | 10 | 59 | 1.6 | 1.6 | 0.00 | 0.33 | 0.33 | 98 | 1011.9 |
| 20260506105847 | 10 | 68 | 1.6 | 1.6 | 0.00 | 0.33 | 0.33 | 98 | 1011.8 |
| 20260506105343 | 10 | 58 | 0.0 | 0.0 | 0.00 | 0.33 | 0.33 | 98 | 1011.5 |
| 20260506104841 | 10 | 55 | 0.0 | 0.0 | 0.00 | 0.33 | 0.33 | 98 | 1011.9 |
| 20260506104338 | 10 | 55 | 0.0 | 0.0 | 0.00 | 0.33 | 0.33 | 98 | 1011.8 |
| 20260506103836 | 10 | 54 | 0.0 | 0.0 | 0.00 | 0.33 | 0.33 | 98 | 1011.7 |
| 20260506103333 | 10 | 58 | 0.0 | 0.0 | 0.00 | 0.33 | 0.33 | 98 | 1011.4 |
| 20260506102831 | 10 | 59 | 0.0 | 0.0 | 0.00 | 0.33 | 0.33 | 98 | 1011.2 |
| 20260506102328 | 10 | 55 | 0.0 | 0.0 | 0.00 | 0.33 | 0.33 | 98 | 1011.3 |
| 20260506101825 | 10 | 51 | 0.0 | 0.0 | 0.00 | 0.33 | 0.33 | 98 | 1011.1 |
| 20260506101321 | 10 | 57 | 0.0 | 0.0 | 0.00 | 0.33 | 0.33 | 98 | 1010.8 |
| 20260506100820 | 10 | 60 | 0.0 | 0.0 | 0.00 | 0.33 | 0.33 | 98 | 1011.0 |
| 20260506100318 | 10 | 55 | 0.0 | 0.0 | 0.00 | 0.33 | 0.33 | 98 | 1011.0 |
| 20260506095816 | 10 | 38 | 0.0 | 0.0 | 0.00 | 0.33 | 0.33 | 98 | 1011.1 |
| 20260506095312 | 10 | 52 | 0.0 | 0.0 | 0.00 | 0.33 | 0.33 | 98 | 1011.2 |
| 20260506094809 | 10 | 48 | 0.0 | 0.0 | 0.00 | 0.33 | 0.33 | 98 | 1010.9 |
| 20260506094308 | 10 | 51 | 0.0 | 0.0 | 0.00 | 0.33 | 0.33 | 98 | 1011.0 |
| 20260506093805 | 10 | 48 | 1.6 | 1.6 | 0.00 | 0.33 | 0.33 | 98 | 1010.6 |
| 20260506093302 | 10 | 57 | 0.0 | 1.6 | 0.00 | 0.33 | 0.33 | 98 | 1011.0 |
| 20260506092800 | 10 | 47 | 0.0 | 1.6 | 0.00 | 0.33 | 0.33 | 98 | 1010.8 |
| 20260506092258 | 10 | 47 | 0.0 | 0.0 | 0.00 | 0.33 | 0.33 | 98 | 1010.7 |
| 20260506091755 | 10 | 63 | 0.0 | 1.6 | 0.00 | 0.33 | 0.33 | 98 | 1010.8 |
| 20260506091252 | 10 | 39 | 0.0 | 1.6 | 0.00 | 0.33 | 0.33 | 98 | 1010.5 |
| 20260506090750 | 10 | 38 | 3.2 | 3.2 | 0.00 | 0.33 | 0.33 | 98 | 1010.5 |
| 20260506090247 | 10 | 44 | 0.0 | 0.0 | 0.00 | 0.33 | 0.33 | 98 | 1009.9 |
| 20260506085744 | 10 | 39 | 1.6 | 1.6 | 0.00 | 0.33 | 0.33 | 98 | 1010.0 |
| 20260506085240 | 10 | 40 | 0.0 | 0.0 | 0.00 | 0.33 | 0.33 | 98 | 1010.0 |
| 20260506084736 | 10 | 54 | 0.0 | 1.6 | 0.00 | 0.33 | 0.33 | 98 | 1009.8 |
| 20260506084233 | 10 | 52 | 0.0 | 0.0 | 0.00 | 0.33 | 0.33 | 98 | 1009.6 |
| 20260506083730 | 10 | 63 | 0.0 | 0.0 | 0.00 | 0.33 | 0.33 | 98 | 1009.7 |
| 20260506083228 | 10 | 47 | 0.0 | 1.6 | 0.18 | 0.33 | 0.33 | 98 | 1009.9 |
| 20260506082725 | 10 | 46 | 1.6 | 1.6 | 0.18 | 0.33 | 0.33 | 98 | 1010.1 |
| 20260506082220 | 10 | 64 | 0.0 | 0.0 | 0.00 | 0.30 | 0.30 | 98 | 1010.0 |
| 20260506081718 | 10 | 44 | 0.0 | 0.0 | 0.00 | 0.30 | 0.30 | 98 | 1009.6 |
| 20260506081215 | 10 | 44 | 1.6 | 1.6 | 0.00 | 0.30 | 0.30 | 98 | 1009.5 |
| 20260506080714 | 10 | 57 | 0.0 | 1.6 | 0.00 | 0.30 | 0.30 | 98 | 1009.9 |
| 20260506080210 | 10 | 83 | 1.6 | 1.6 | 0.00 | 0.30 | 0.30 | 98 | 1009.6 |
| 20260506073154 | 10 | 24 | 3.2 | 4.8 | 0.00 | 0.30 | 0.30 | 98 | 1009.8 |
| 20260506072650 | 10 | 29 | 1.6 | 4.8 | 0.00 | 0.30 | 0.30 | 98 | 1009.6 |
| 20260506072148 | 10 | 70 | 1.6 | 1.6 | 0.18 | 0.30 | 0.30 | 98 | 1010.4 |
| 20260506071645 | 10 | 45 | 0.0 | 1.6 | 0.18 | 0.30 | 0.30 | 98 | 1009.6 |
| 20260506071143 | 10 | 58 | 0.0 | 0.0 | 0.00 | 0.28 | 0.28 | 98 | 1009.9 |
| 20260506070640 | 10 | 54 | 0.0 | 0.0 | 0.00 | 0.28 | 0.28 | 98 | 1010.0 |
| 20260506070137 | 10 | 42 | 1.6 | 1.6 | 0.00 | 0.28 | 0.28 | 98 | 1009.9 |
| 20260506062114 | 11 | 53 | 0.0 | 0.0 | 0.00 | 0.20 | 0.20 | 98 | 1008.9 |
| 20260506061610 | 11 | 47 | 1.6 | 1.6 | 0.61 | 0.20 | 0.20 | 98 | 1008.7 |
| 20260506061108 | 11 | 43 | 0.0 | 0.0 | 0.61 | 0.20 | 0.20 | 98 | 1009.2 |
| 20260506060606 | 11 | 77 | 1.6 | 3.2 | 0.30 | 0.13 | 0.13 | 98 | 1009.1 |
| 20260506051035 | 11 | 70 | 1.6 | 1.6 | 0.00 | 0.00 | 0.00 | 97 | 1008.1 |
| 20260506050533 | 11 | 75 | 0.0 | 0.0 | 0.00 | 0.00 | 0.00 | 98 | 1008.5 |
| 20260506045023 | 11 | 45 | 1.6 | 1.6 | 0.00 | 2.57 | 2.57 | 97 | 1008.4 |
| 20260506044521 | 12 | 42 | 1.6 | 1.6 | 0.00 | 2.57 | 2.57 | 97 | 1008.3 |
| 20260506044018 | 12 | 58 | 0.0 | 1.6 | 0.18 | 2.57 | 2.57 | 97 | 1008.1 |
| 20260506043515 | 12 | 44 | 1.6 | 1.6 | 0.36 | 2.57 | 2.57 | 97 | 1008.2 |
| 20260506043013 | 12 | 53 | 0.0 | 0.0 | 0.48 | 2.54 | 2.54 | 96 | 1008.0 |
| 20260506042512 | 12 | 76 | 1.6 | 1.6 | 1.50 | 2.51 | 2.51 | 96 | 1008.1 |
| 20260506042010 | 13 | 64 | 0.0 | 0.0 | 1.68 | 2.49 | 2.49 | 96 | 1008.4 |
| 20260506041508 | 13 | 33 | 3.2 | 3.2 | 1.68 | 2.26 | 2.26 | 96 | 1008.4 |
| 20260506041004 | 14 | 58 | 0.0 | 0.0 | 1.50 | 2.18 | 2.18 | 96 | 1008.0 |
| 20260506040502 | 14 | 41 | 1.6 | 1.6 | 1.37 | 2.03 | 2.03 | 96 | 1007.9 |
| 20260506035958 | 15 | 72 | 0.0 | 0.0 | 1.07 | 1.93 | 1.93 | 96 | 1007.7 |
| 20260506035455 | 15 | 35 | 1.6 | 1.6 | 0.48 | 1.83 | 1.83 | 95 | 1008.3 |
| 20260506034951 | 15 | 49 | 0.0 | 1.6 | 0.18 | 1.78 | 1.78 | 95 | 1007.5 |
| 20260506034449 | 16 | 46 | 1.6 | 1.6 | 0.13 | 1.75 | 1.75 | 94 | 1007.5 |
| 20260506033946 | 17 | 12 | 3.2 | 3.2 | 0.30 | 1.75 | 1.75 | 95 | 1007.6 |
| 20260506033444 | 18 | 348 | 1.6 | 3.2 | 0.79 | 1.73 | 1.73 | 95 | 1007.5 |
| 20260506032940 | 18 | 24 | 1.6 | 3.2 | 2.87 | 1.70 | 1.70 | 96 | 1007.2 |
| 20260506032437 | 18 | 32 | 3.2 | 3.2 | 2.46 | 1.63 | 1.63 | 95 | 1006.5 |
| 20260506031933 | 18 | 49 | 0.0 | 0.0 | 0.30 | 1.24 | 1.24 | 95 | 1007.3 |
| 20260506031431 | 18 | 261 | 3.2 | 4.8 | 0.18 | 1.22 | 1.22 | 94 | 1006.4 |
| 20260506030929 | 18 | 33 | 1.6 | 3.2 | 0.00 | 1.19 | 1.19 | 95 | 1006.2 |
| 20260506030427 | 18 | 47 | 1.6 | 1.6 | 0.00 | 1.19 | 1.19 | 96 | 1006.3 |
| 20260506025923 | 18 | 277 | 4.8 | 9.7 | 0.00 | 1.19 | 1.19 | 96 | 1006.4 |
| 20260506025420 | 18 | 51 | 1.6 | 1.6 | 0.00 | 1.19 | 1.19 | 96 | 1006.0 |
| 20260506024917 | 18 | 257 | 3.2 | 4.8 | 0.00 | 1.19 | 1.19 | 97 | 1006.1 |
| 20260506024414 | 18 | 43 | 4.8 | 4.8 | 0.00 | 1.19 | 1.19 | 97 | 1006.2 |
| 20260506023909 | 18 | 79 | 1.6 | 1.6 | 0.00 | 1.19 | 1.19 | 97 | 1006.0 |
| 20260506023407 | 17 | 249 | 1.6 | 3.2 | 0.00 | 1.19 | 1.19 | 97 | 1006.3 |
| 20260506022903 | 17 | 56 | 0.0 | 0.0 | 0.00 | 1.19 | 1.19 | 97 | 1006.2 |
| 20260506022401 | 17 | 55 | 0.0 | 1.6 | 0.00 | 1.19 | 1.19 | 97 | 1006.3 |
| 20260506021859 | 17 | 57 | 0.0 | 1.6 | 0.00 | 1.19 | 1.19 | 97 | 1006.2 |
| 20260506021355 | 17 | 71 | 1.6 | 1.6 | 0.00 | 1.19 | 1.19 | 97 | 1006.3 |
| 20260506020852 | 17 | 30 | 3.2 | 3.2 | 0.00 | 1.19 | 1.19 | 98 | 1006.3 |
| 20260506020350 | 17 | 65 | 1.6 | 1.6 | 0.00 | 1.19 | 1.19 | 98 | 1006.2 |
| 20260506015847 | 17 | 17 | 1.6 | 1.6 | 0.00 | 1.19 | 1.19 | 98 | 1006.3 |